Massena, NY

6:38 PM EST on December 18, 2017 (GMT -0500)
Massena International-Richards

Weather History for KMSS - May, 2013

Change the Weather History Date:

Sunday, May 12, 2013

  Actual Average Record
Temperature  
Mean Temperature 45 °F 54 °F  
Max Temperature 53 °F 66 °F 86 °F (1992)
Min Temperature 37 °F 42 °F 29 °F (1962)
Degree Days  
Heating Degree Days 20 11  
Month to date heating degree days 156  
Since 1 July heating degree days 7938  
Cooling Degree Days 0 0  
Month to date cooling degree days 0 0  
Year to date cooling degree days 0 1  
Moisture  
Dew Point 37 °F    
Average Humidity 64    
Maximum Humidity 86    
Minimum Humidity 41    
Precipitation  
Precipitation 0.05 in 0.10 in 1.02 in (1952)
Month to date precipitation 1.36 1.14  
Year to date precipitation 5.86 10.00  
Sea Level Pressure  
Sea Level Pressure 29.68 in    
Wind  
Wind Speed 17 mph (SW)    
Max Wind Speed 35 mph    
Max Gust Speed 49 mph    
Visibility 10 miles    
Events Rain    
T = Trace of Precipitation, MM = Missing Value Source: NWS Daily Summary

Daily Weather History Graph

Daily Weather History Graph

Search for Another Location

Airport or City:

Trip Planner

Search our weather history database for the weather conditions in past years. The results will help you decide how hot, cold, wet, or windy it might be!

Date:

Astronomy

May. 12, 2013 Rise Set
Actual Time 5:33 AM EDT 8:18 PM EDT
Civil Twilight 5:00 AM EDT 8:52 PM EDT
Nautical Twilight 4:17 AM EDT 9:35 PM EDT
Astronomical Twilight 3:27 AM EDT 10:25 PM EDT
Moon 7:25 AM EDT (5/12) 10:44 PM EDT (5/12)
Length of Visible Light 15h 52m
Length of Day
14h 44m
Waxing Crescent, 6% of the Moon is Illuminated
May 12
Waxing Crescent
May 18
First Quarter
May 25
Full
May 31
Last Quarter
Jun 8
New

Hourly Weather History & Observations

Time (EDT) Temp. Windchill Dew Point Humidity Pressure Visibility Wind Dir Wind Speed Gust Speed Precip Events Conditions
12:53 AM 48.0 °F - 44.1 °F 86% 29.70 in 10.0 mi South 6.9 mph - N/A   Overcast
1:53 AM 48.9 °F - 45.0 °F 86% 29.69 in 10.0 mi SSW 9.2 mph - N/A   Overcast
2:53 AM 48.9 °F - 45.0 °F 86% 29.68 in 10.0 mi SSW 11.5 mph - N/A   Overcast
3:53 AM 48.9 °F - 45.0 °F 86% 29.66 in 10.0 mi SSW 6.9 mph - N/A   Overcast
4:53 AM 48.9 °F - 44.1 °F 83% 29.65 in 10.0 mi SSW 10.4 mph - N/A   Overcast
5:53 AM 48.9 °F - 44.1 °F 83% 29.64 in 9.0 mi South 8.1 mph - N/A   Mostly Cloudy
6:43 AM 50.0 °F - 44.6 °F 82% 29.63 in 7.0 mi South 4.6 mph - 0.00 in Rain Light Rain
6:53 AM 50.0 °F - 45.0 °F 83% 29.63 in 7.0 mi South 4.6 mph - 0.00 in   Overcast
7:53 AM 50.0 °F - 44.1 °F 80% 29.62 in 10.0 mi SW 17.3 mph 29.9 mph 0.00 in Rain Light Rain
8:53 AM 50.0 °F - 41.0 °F 71% 29.66 in 10.0 mi SW 21.9 mph 29.9 mph 0.00 in   Overcast
9:19 AM 50.0 °F - 39.2 °F 66% 29.65 in 10.0 mi SW 17.3 mph 28.8 mph N/A   Overcast
9:53 AM 48.9 °F - 37.0 °F 64% 29.68 in 10.0 mi SW 20.7 mph 27.6 mph N/A   Overcast
10:00 AM 48.2 °F - 37.4 °F 66% 29.67 in 10.0 mi SW 16.1 mph 27.6 mph N/A   Overcast
10:15 AM 46.4 °F 39.0 °F 37.4 °F 71% 29.68 in 10.0 mi SW 19.6 mph 28.8 mph N/A   Overcast
10:37 AM 48.2 °F - 35.6 °F 62% 29.69 in 10.0 mi SW 24.2 mph 32.2 mph N/A   Overcast
10:53 AM 48.9 °F - 35.1 °F 59% 29.70 in 10.0 mi SW 17.3 mph 32.2 mph N/A   Overcast
11:53 AM 51.1 °F - 33.1 °F 50% 29.69 in 10.0 mi WSW 20.7 mph 29.9 mph N/A   Scattered Clouds
12:53 PM 51.1 °F - 32.0 °F 48% 29.68 in 10.0 mi WSW 13.8 mph 24.2 mph N/A   Mostly Cloudy
1:53 PM 53.1 °F - 30.9 °F 43% 29.68 in 10.0 mi WSW 21.9 mph 32.2 mph N/A   Mostly Cloudy
2:53 PM 51.1 °F - 30.9 °F 46% 29.68 in 10.0 mi SW 24.2 mph 34.5 mph N/A   Mostly Cloudy
3:53 PM 51.1 °F - 28.0 °F 41% 29.68 in 10.0 mi SW 28.8 mph 43.7 mph N/A   Mostly Cloudy
4:53 PM 52.0 °F - 28.0 °F 40% 29.68 in 10.0 mi SW 21.9 mph 40.3 mph N/A   Mostly Cloudy
5:53 PM 50.0 °F - 30.0 °F 46% 29.70 in 10.0 mi SW 19.6 mph 34.5 mph N/A   Scattered Clouds
6:53 PM 45.0 °F 37.1 °F 35.1 °F 68% 29.72 in 10.0 mi WSW 19.6 mph 25.3 mph 0.01 in Rain Light Rain
7:53 PM 39.9 °F 30.8 °F 34.0 °F 79% 29.74 in 5.0 mi West 18.4 mph 34.5 mph 0.02 in Rain Rain
8:53 PM 39.0 °F 32.3 °F 35.1 °F 86% 29.73 in 10.0 mi SSW 10.4 mph - 0.02 in   Overcast
9:53 PM 39.0 °F 30.6 °F 33.1 °F 79% 29.74 in 10.0 mi SSW 15.0 mph - N/A   Overcast
10:53 PM 37.9 °F 27.6 °F 30.9 °F 76% 29.74 in 10.0 mi SW 20.7 mph 25.3 mph N/A   Overcast
11:53 PM 37.9 °F 28.2 °F 30.0 °F 73% 29.73 in 10.0 mi SW 18.4 mph 27.6 mph N/A   Mostly Cloudy